Torna al catalogo

STARLINK-31862

AttivoComunicazioniVLEO
NORAD 59786·PAYLOAD·🇺🇸 United States

Lanciato May 18, 2024 da Cape Canaveral Space Force Station

Loading…

Prossimi Passaggi (prossime 24 ore)

TLE

AggiornatoSource: CelesTrak SupGP

Epoca: Sep 15, 2026, 02:35 UTC

1 59786C 24093E   26258.10812500 -.00037414  00000+0 -13552-2 0  2589
2 59786  43.0025 218.8322 0001298 268.7106 261.3477 15.27595007    19

Traccia STARLINK-31862 in tempo reale con AllMySat

Download on the App Store